Regional Weather Roundup
Issued by NWS

Home | Current Version | Previous Version | Text Only | Print | Product List | Glossary Off
Versions: 1 2 3 4 5 6 7 8 9 10 11 12 13 14 15 16 17 18 19 20 21 22 23 24 25 26 27 28 29 30 31 32 33 34 35 36 37 38 39 40 41 42 43 44 45 46 47 48

000
ASUS43 KDMX 211607
RWRIA

WEATHER ROUNDUP FOR IOWA
NATIONAL WEATHER SERVICE DES MOINES IA
1100 AM CDT SUN SEP 21 2014

NOTE: "FAIR" INDICATES FEW OR NO CLOUDS BELOW 12,000 FEET WITH NO
SIGNIFICANT WEATHER AND/OR OBSTRUCTIONS TO VISIBILITY.

* - THESE STATIONS ARE NOT NWS STATIONS...THUS NOT UNDER NWS
QUALITY CONTROL.  THEY ALSO DO NOT REPORT WEATHER SUCH
AS PRECIPITATION OR FOG.

IAZ001>003-012>014-020>022-031>034-043>046-211700-
   NORTHWEST IOWA

CITY           SKY/WX    TMP DP  RH WIND       PRES   REMARKS
CARROLL *      SUNNY     64  46  52 N18G26    30.18R
CHEROKEE *     MOSUNNY   63  50  63 N17G25    30.20S
DENISON *      SUNNY     63  52  67 N17G24    30.19R
LE MARS *      SUNNY     63  48  59 N13G20    30.23R
ORANGE CITY *  SUNNY     63  46  55 N13G18    30.22R
SHELDON *      MOSUNNY   63  48  59 N12G25    30.21R
SIOUX CITY     SUNNY     63  48  58 NW10      30.23R
SPENCER        MOSUNNY   62  48  60 N16G24    30.19R
STORM LAKE *   SUNNY     61  52  72 N15       30.19R
$$

IAZ055>058-069>071-079>083-090>094-211700-
   SOUTHWEST IOWA

CITY           SKY/WX    TMP DP  RH WIND       PRES   REMARKS
ATLANTIC *     SUNNY     63  50  63 N14G22    30.18S
AUDUBON *      SUNNY     64  46  52 N15       30.19S
CLARINDA *     SUNNY     68  50  52 NW12G17   30.20S
COUNCIL BLFS * SUNNY     64  52  63 NW9G18    30.21S
CRESTON *      SUNNY     64  50  59 N18       30.17S
HARLAN  *      SUNNY     64  50  59 N15G22    30.23S
LAMONI         SUNNY     65  51  60 N17G23    30.15R
RED OAK *      SUNNY     66  50  55 N15G22    30.20S
SHENANDOAH *   SUNNY     68  48  49 N14G20    30.21S
$$

IAZ047>049-059>061-072>074-084-211700-
   CENTRAL IOWA

CITY           SKY/WX    TMP DP  RH WIND       PRES   REMARKS
AMES           SUNNY     64  49  57 NW17G25   30.13R
ANKENY *       SUNNY     64  48  55 NW18G30   30.12S
CHARITON *     SUNNY     66  48  52 NW21G28   30.13R
DES MOINES     MOSUNNY   66  47  50 N16G25    30.12R
GRINNELL*      SUNNY     63  46  55 NW18G26   30.10R
KNOXVILLE *    SUNNY     64  46  52 NW20      30.10S
MARSHALLTOWN   MOSUNNY   63  49  60 N18       30.10R
PELLA *        SUNNY     64  48  55 N18G25    30.11S
PERRY *          N/A     66  48  52 NW14G21   30.16R
$$

IAZ004>006-015-016-023>025-035-036-211700-
   NORTH CENTRAL IOWA

CITY           SKY/WX    TMP DP  RH WIND       PRES   REMARKS
ALGONA *       MOSUNNY   61  48  63 N13G21    30.16R
CLARION *        N/A     61  48  63 N17G26    30.14R
ESTHERVILLE    MOSUNNY   59  47  64 N17G23    30.17R
FORT DODGE *   SUNNY     63  46  55 N9G21     30.16S
MASON CITY     CLOUDY    58  50  75 N17       30.13R
FOREST CITY *  CLOUDY    57  50  77 N12G22    30.14R
IOWA FALLS *   PTSUNNY   61  48  63 NW22      30.13R
$$

IAZ007>011-017>019-026>030-037>042-050>054-066-211700-
   NORTHEAST IOWA

CITY           SKY/WX    TMP DP  RH WIND       PRES   REMARKS
CEDAR RAPIDS   CLOUDY    59  50  72 NW20G28   30.06R
CHARLES CITY * CLOUDY    57  50  77 NW14G21   30.10R
CLINTON *      CLOUDY    61  48  63 NW16G24   30.02R
DECORAH *      CLOUDY    57  52  82 NW16G24   30.04R
DUBUQUE        CLOUDY    56  50  80 NW15      30.01R
MONTICELLO *   CLOUDY    59  50  72 NW13G20   30.03R
OELWEIN *      CLOUDY    57  50  77 NW18G26   30.07R
WATERLOO       CLOUDY    57  49  74 NW16      30.08R
$$

IAZ064-065-067-068-078-211700-
   EAST CENTRAL IOWA

CITY           SKY/WX    TMP DP  RH WIND       PRES   REMARKS
DAVENPORT      PTSUNNY   62  48  60 NW17G24   30.02R
IOWA CITY        N/A     62  51  67 N15G24    30.06R
MT. PLEASANT * SUNNY     66  45  45 NW14G24   30.05R
MUSCATINE *    MOSUNNY   64  50  59 N17G28    30.04R
QUAD CITIES    CLOUDY    62  50  64 NW15G23   30.01R
$$

IAZ062-063-075>077-085>089-095>099-211700-
   SOUTHEAST IOWA

CITY           SKY/WX    TMP DP  RH WIND       PRES   REMARKS
BURLINGTON     SUNNY     68  49  50 NW12G24   30.02R
FAIRFIELD *    SUNNY     66  46  48 NW17G29   30.07R
FORT MADISON * SUNNY     70  46  43 NW15G23   30.05S
KEOKUK *       SUNNY     66  50  55 NW13G24   30.05S
OSKALOOSA *      N/A     64  50  59 NW20      30.09S
CENTERVILLE *  SUNNY     66  50  55 NW16      30.13R
OTTUMWA        SUNNY     65  48  54 NW25G32   30.08R
WASHINGTON *   SUNNY     66  48  52 NW20G30   30.05R
$$

ABBREVIATIONS USED IN REMARKS
   TC - TEMPERATURES IN CELSIUS
  WCI - WIND CHILL INDEX
   HX - HEAT INDEX
  VSB - VISIBILITY
$$



USA.gov is the U.S. government's official web portal to all federal, state and local government web resources and services.